Location: Hradec Kralove
(50.2170°N, 15.8330°E)
Time: 04:31:49
(UTC+01:00)

N. Korean satellite - Pass Details

Date: 06 December 2022
Orbit: 407 x 441 km, 97.3° (Epoch: 05 February)

Event Time Altitude Azimuth Distance (km) Brightness Sun altitude
Rises 04:38:43 0° 23° (NNE) 2,520 10.5 -28.0°
Reaches altitude 10° 04:41:03 10° 37° (NE) 1,632 9.6 -27.6°
Maximum altitude 04:43:59 25° 94° (E) 979 8.8 -27.1°
Drops below altitude 10° 04:46:53 10° 152° (SSE) 1,598 9.5 -26.7°
Sets 04:49:08 0° 166° (SSE) 2,454 10.4 -26.3°
